Location: D�nning
(49.2479°N, 12.8491°E)
Time: 02:16:29
(UTC+00:00)

NOSS 3-2 (C) - Pass Details

Date: 18 September 2020
Orbit: 795 x 1418 km, 63.4° (Epoch: 02 October)

Event Time Altitude Azimuth Distance (km) Brightness Sun altitude
Rises 18:43:47 0° 316° (NW) 3,870 7.9 -15.1°
Reaches altitude 10° 18:46:20 10° 320° (NW) 2,998 7.0 -15.4°
Maximum altitude 18:53:34 64° 42° (NE) 1,368 4.1 -16.5°
Enters shadow 18:58:45 24° 116° (ESE) 2,419 4.9 -17.3°
